NAVSTAR 80 (USA 309)

Last updated on Nov. 8, 2020, 12:02 a.m. UTC

1 46826U 20078A   20312.27754360 -.00000007  00000-0  00000+0 0  9992
2 46826  55.0000 294.7836 5932710 270.2719  26.1215  4.03338080    53
UTC
Height (km)
Latitude
Longitude
Inclination
Orbital Period
UTC large
Height (km)
Speed (km/s)
/
Latitude / Longitude
Inclination (degrees)
Orbital Period (minutes)
Azimuth
Elevation
Range (km)
Doppler Factor
iOS Compass Heading
iOS Angle

Next 30 passes for location: Hong Kong

Rise time Rise Azimuth (degrees) Set time Set Azimuth (degrees) Duration Max altitude (degrees)

No matching passes for this satellites